Date,TemperatureHighF,TemperatureAvgF,TemperatureLowF,DewpointHighF,DewpointAvgF,DewpointLowF,HumidityHigh,HumidityAvg,HumidityLow,PressureMaxIn,PressureMinIn,WindSpeedMaxMPH,WindSpeedAvgMPH,GustSpeedMaxMPH,PrecipitationSumIn
2013-3-1,63,47,30,26,20,11,67,38,14,30.35,30.20,29,3,30,0.00
2013-3-2,67,49,32,31,27,23,69,45,24,30.47,30.22,17,1,17,0.00
2013-3-3,78,59,35,31,25,19,69,34,11,30.22,29.75,29,4,31,0.00
2013-3-4,85,69,55,42,23,10,43,20,6,29.80,29.61,32,7,37,0.00
2013-3-5,62,49,38,41,20,8,59,35,14,30.40,29.80,42,8,43,0.00
2013-3-6,65,47,29,19,14,8,59,31,12,30.46,30.17,17,2,18,0.00
2013-3-7,75,58,43,47,33,16,68,40,29,30.17,29.99,19,3,23,0.00
2013-3-8,71,63,55,60,57,47,94,80,64,30.03,29.83,20,5,25,0.00
2013-3-9,80,69,63,60,50,24,83,56,22,29.84,29.57,35,5,36,0.05
2013-3-10,63,53,45,30,23,12,50,32,17,30.13,29.74,31,10,31,0.05
2013-3-11,72,50,29,24,18,13,60,31,14,30.20,29.97,18,2,19,0.00
2013-3-12,70,56,38,31,26,19,66,35,15,30.31,29.99,24,5,25,0.00
2013-3-13,77,57,38,36,30,25,62,38,21,30.42,30.20,21,1,21,0.00
2013-3-14,81,63,44,47,39,34,72,44,20,30.29,30.10,19,1,21,0.00
2013-3-15,86,67,48,51,42,38,72,45,19,30.14,29.84,19,2,22,0.00
2013-3-16,92,73,55,50,42,32,72,38,12,29.86,29.55,25,3,25,0.00
2013-3-17,80,64,48,46,42,37,68,47,28,29.79,29.60,24,2,26,0.00
2013-3-18,71,62,50,44,41,36,68,47,34,29.94,29.66,30,2,30,0.00
2013-3-19,81,61,45,49,44,38,82,56,25,30.08,29.79,20,3,22,0.00
2013-3-20,70,60,44,46,32,27,62,38,21,30.28,29.96,20,2,20,0.00
2013-3-21,85,67,50,54,45,32,63,47,28,29.97,29.44,27,5,27,0.00
2013-3-22,69,58,48,56,46,39,81,66,52,29.77,29.53,22,4,22,0.00
2013-3-23,83,60,47,50,40,14,88,57,9,29.85,29.54,41,4,41,0.00
2013-3-24,54,44,33,44,22,14,76,43,22,30.23,29.84,30,8,31,0.00
2013-3-25,56,44,30,18,14,7,54,32,17,30.42,30.20,15,1,15,0.00
2013-3-26,66,49,29,20,16,13,54,30,14,30.48,30.20,20,2,21,0.00
2013-3-27,75,58,42,46,34,17,59,42,29,30.23,30.00,25,4,25,0.00
2013-3-28,80,64,48,55,49,42,86,62,39,30.10,29.96,20,3,21,0.00
2013-3-29,80,68,58,58,56,54,86,68,43,30.07,29.93,19,2,19,0.00
2013-3-30,88,71,55,61,55,41,92,61,22,30.04,29.76,25,2,26,0.00
2013-3-31,80,71,64,58,53,47,76,56,35,29.94,29.80,24,2,24,0.00